User: anonymous   Login
Location: East Guldeford
(50.9500°N, 0.7500°E)
Time: 03:06:26
(UTC+00:00)
Language:

Cosmos 2084 Rocket - Orbit

View from above orbital plane
View from above orbital plane
View from above satellite
View from above satellite

Ground track
Ground track

The orbit data is extracted from the following two-line orbital elements,

1 20666U 90055D   21207.33460758  .00000243  00000-0  39401-4 0  9997
2 20666  62.7837 174.8771 0103125  39.1772 321.6728 14.92523977685570
Epoch (UTC): 26 July 2021 08:01:50
Eccentricity: 0.0103125
inclination: 62.7837°
perigee height: 518 km
apogee height: 662 km
right ascension of ascending node: 174.8771°
argument of perigee: 39.1772°
revolutions per day: 14.92523977
mean anomaly at epoch: 321.6728°
orbit number at epoch: 68557

The dashed part of the orbit path shows where the satellite is in the earth's shadow,  

DLR